Regional Weather Roundup
Issued by NWS

Current Version | Previous Version | Text Only | Print | Product List | Glossary Off
Versions: 1 2 3 4 5 6 7 8 9 10 11 12 13 14 15 16 17 18 19 20 21 22 23 24 25 26 27 28 29 30 31 32 33 34 35 36 37 38 39 40 41 42 43 44 45 46 47 48 49 50

000
ASUS44 KMEG 201510
RWRTN
TENNESSEE HOURLY STATE WEATHER ROUNDUP
NATIONAL WEATHER SERVICE MEMPHIS TN
900 AM CST SAT JAN 20 2018

TNZ002-004-019-021-049-052-054-088>092-201600-
WEST TENNESSEE

CITY           SKY/WX    TMP DP  RH WIND       PRES   REMARKS
MEMPHIS INTL   PTSUNNY   48  27  44 S8        30.19R
NWS MEMPHIS      N/A     49 N/A N/A MISG        N/A
JACKSON        CLOUDY    46  26  45 S7        30.21R
DYERSBURG      CLOUDY    43  25  49 S5        30.19R
SOMERVILLE     MOSUNNY   50  25  37 S7        30.18S
COVINGTON      CLOUDY    45  28  53 S5        30.19R
UNION CITY     CLOUDY    41  27  56 S8        30.18R
BOLIVAR        SUNNY     48  27  43 S8        30.20R
PARIS          CLOUDY    43  25  49 S8        30.18S
HUNTINGDON     CLOUDY    43  27  52 S3        30.20R
LEXINGTON      PTSUNNY   46  25  42 SW5       30.22R
SELMER         CLOUDY    48  23  37 SW8G15    30.21R
SAVANNAH       CLOUDY    48  25  40 S7        30.23R
$$

TNZ008-025-027-028-033-062-065-066-201600-
NORTH MIDDLE TENNESSEE

CITY           SKY/WX    TMP DP  RH WIND       PRES   REMARKS
NASHVILLE      PTSUNNY   50  25  37 S10       30.24R
PORTLAND       CLOUDY    45  30  57 S7        30.22R
CLARKSVILLE    CLOUDY    42  23  46 S7        30.21R
SMYRNA         FAIR      48  28  46 S7        30.26R
COOKEVILLE     CLOUDY    48  30  49 S6        30.25R
GALLATIN       CLOUDY    46  28  49 S5        30.27R
CROSSVILLE     CLOUDY    40  23  50 S5        30.26R
$$

TNZ061-075-076-078-094-096-097-201600-
SOUTH MIDDLE TENNESSEE

CITY           SKY/WX    TMP DP  RH WIND       PRES   REMARKS
FAYETTEVILLE   CLOUDY    48  25  40 S7        30.25S
TULLAHOMA      CLOUDY    48  25  40 SW5       30.26R
WINCHESTER     CLOUDY    46  28  49 SE3       30.27R
MCMINNVILLE    CLOUDY    48  28  46 SW7       30.26R
COLUMBIA       CLOUDY    48  25  40 SW9       30.22R
SHELBYVILLE    PTSUNNY   48  27  43 S8        30.26R
$$

TNZ017-018-042-046-047-201600-
NORTHEAST TENNESSEE

CITY           SKY/WX    TMP DP  RH WIND       PRES   REMARKS
TRI CITIES     CLOUDY    32  25  75 CALM      30.28S
ELIZABETHTON   CLOUDY    36  28  75 CALM      30.28S
$$

TNZ012-013-036-069-073-074-201600-
CENTRAL EAST TENNESSEE

CITY           SKY/WX    TMP DP  RH WIND       PRES   REMARKS
KNOXVILLE      CLOUDY    40  21  46 CALM      30.28R
OAK RIDGE      CLOUDY    41  22  46 VRB3      30.29S
DOWNTOWN KNOXV CLOUDY    37  25  60 CALM      30.30R
GATLINBURG     CLOUDY    37  28  70 CALM      30.28R
MORRISTOWN     CLOUDY    37  23  56 CALM      30.27S
JACKSBORO      CLOUDY    36  25  64 CALM      30.31R
$$

TNZ083-085-099-201600-
SOUTHEAST TENNESSEE

CITY           SKY/WX    TMP DP  RH WIND       PRES   REMARKS
CHATTANOOGA    CLOUDY    41  19  41 CALM      30.29R
DAYTON         CLOUDY    39  28  65 CALM      30.28S
$$

SKY/WX REPORTED AS FAIR MEANS FEW OR NO CLOUDS BELOW
12 THOUSAND FEET.





USA.gov is the U.S. government's official web portal to all federal, state and local government web resources and services.